Bowling Green, Kentucky, United States (42101)
Lat: 36.99N, Lon: 86.44W
Wx Zone: KYZ071
Local Info
Past Weather Observations for Thursday, April 10, 2014

NOTE: This archive is for the closest National Weather Service station to Bowling Green. Information may differ from the station used for current weather conditions.

Time Weather Temperature Dewpoint Humidity Pressure Winds Precip Visibility
23:55
Clear
66°F / 19°C 39°F / 4°C 37% 30.04 in
(1017 mb)
SW 12.7 mph
(SW 20 kph)
- 10SM
23:35
Clear
66°F / 19°C 37°F / 3°C 35% 30.04 in
(1017 mb)
SW 11.5 mph
(SW 19 kph)
- 10SM
23:15
Clear
64°F / 18°C 37°F / 3°C 37% 30.04 in
(1017 mb)
SW 9.2 mph
(SW 15 kph)
- 10SM
22:55
Clear
66°F / 19°C 39°F / 4°C 37% 30.04 in
(1017 mb)
SW 9.2 mph
(SW 15 kph)
- 10SM
22:35
Clear
66°F / 19°C 39°F / 4°C 37% 30.04 in
(1017 mb)
SSE 9.2 mph
(SSE 15 kph)
- 10SM
22:15
Clear
66°F / 19°C 37°F / 3°C 35% 30.04 in
(1017 mb)
SSE 10.4 mph
(SSE 17 kph)
- 10SM
21:55
Clear
66°F / 19°C 39°F / 4°C 37% 30.04 in
(1017 mb)
SSE 8.1 mph
(SSE 13 kph)
- 10SM
21:35
Clear
66°F / 19°C 39°F / 4°C 37% 30.04 in
(1017 mb)
SSE 10.4 mph
(SSE 17 kph)
- 10SM
21:15
Clear
66°F / 19°C 39°F / 4°C 37% 30.04 in
(1017 mb)
SSE 9.2 mph
(SSE 15 kph)
- 10SM
20:55
Clear
66°F / 19°C 39°F / 4°C 37% 30.04 in
(1017 mb)
SSE 9.2 mph
(SSE 15 kph)
- 10SM
20:35
Clear
66°F / 19°C 39°F / 4°C 37% 30.04 in
(1017 mb)
S 10.4 mph
(S 17 kph)
- 10SM
20:15
Clear
66°F / 19°C 39°F / 4°C 37% 30.04 in
(1017 mb)
SSE 10.4 mph
(SSE 17 kph)
- 10SM
19:55
Clear
66°F / 19°C 39°F / 4°C 37% 30.04 in
(1017 mb)
S 10.4 mph
(S 17 kph)
- 10SM
19:35
Clear
66°F / 19°C 39°F / 4°C 37% 30.04 in
(1017 mb)
SSE 10.4 mph
(SSE 17 kph)
- 10SM
19:15
Clear
68°F / 20°C 39°F / 4°C 35% 30.04 in
(1017 mb)
S 8.1 mph
(S 13 kph)
- 10SM
18:55
Clear
68°F / 20°C 39°F / 4°C 35% 30.01 in
(1016 mb)
SSE 9.2 mph
(SSE 15 kph)
- 10SM
18:35
Clear
68°F / 20°C 39°F / 4°C 35% 30.01 in
(1016 mb)
SSE 10.4 mph
(SSE 17 kph)
- 10SM
18:15
Clear
70°F / 21°C 39°F / 4°C 33% 30.01 in
(1016 mb)
S 8.1 mph
(S 13 kph)
- 10SM
17:55
Clear
72°F / 22°C 39°F / 4°C 31% 30.01 in
(1016 mb)
SSE 11.5 mph
(SSE 19 kph)
- 10SM
17:35
Clear
72°F / 22°C 39°F / 4°C 31% 30.01 in
(1016 mb)
SSE 10.4 mph
(SSE 17 kph)
- 10SM
17:15
Clear
72°F / 22°C 39°F / 4°C 31% 29.98 in
(1015 mb)
SSE 9.2 mph
(SSE 15 kph)
- 10SM
16:55
Clear
73°F / 23°C 39°F / 4°C 29% 29.98 in
(1015 mb)
SSE 16.1 mph
(SSE 26 kph)
- 10SM
16:35
Clear
73°F / 23°C 41°F / 5°C 31% 29.98 in
(1015 mb)
SW 17.3 mph
(SW 28 kph)
- 10SM
16:15
Clear
73°F / 23°C 39°F / 4°C 29% 29.98 in
(1015 mb)
SW 16.1 mph
(SW 26 kph)
- 10SM
15:55
Clear
75°F / 24°C 39°F / 4°C 27% 29.98 in
(1015 mb)
SW 18.4 mph
(SW 30 kph)
- 10SM
15:35
Clear
75°F / 24°C 41°F / 5°C 29% 29.98 in
(1015 mb)
S 15 mph
(S 24 kph)
- 10SM
15:15
Clear
73°F / 23°C 41°F / 5°C 31% 30.01 in
(1016 mb)
SSE 12.7 mph
(SSE 20 kph)
- 10SM
14:55
Clear
73°F / 23°C 41°F / 5°C 31% 30.01 in
(1016 mb)
SW 11.5 mph
(SW 19 kph)
- 10SM
14:35
Clear
73°F / 23°C 41°F / 5°C 31% 30.01 in
(1016 mb)
SW 12.7 mph
(SW 20 kph)
- 10SM
14:15
Clear
73°F / 23°C 41°F / 5°C 31% 30.01 in
(1016 mb)
S 16.1 mph
(S 26 kph)
- 10SM
13:35
Clear
73°F / 23°C 39°F / 4°C 29% 30.04 in
(1017 mb)
SW 13.8 mph
(SW 22 kph)
- 10SM
12:55
Clear
73°F / 23°C 41°F / 5°C 31% 30.04 in
(1017 mb)
SSE 15 mph
(SSE 24 kph)
- 10SM
12:35
Clear
72°F / 22°C 39°F / 4°C 31% 30.04 in
(1017 mb)
S 15 mph
(S 24 kph)
- 10SM
12:15
Clear
72°F / 22°C 39°F / 4°C 31% 30.06 in
(1018 mb)
SSE 13.8 mph
(SSE 22 kph)
- 10SM
11:35
Clear
70°F / 21°C 39°F / 4°C 33% 30.06 in
(1018 mb)
S 13.8 mph
(S 22 kph)
- 10SM
11:15
Clear
70°F / 21°C 39°F / 4°C 33% 30.09 in
(1019 mb)
SW 13.8 mph
(SW 22 kph)
- 10SM
10:55
Clear
68°F / 20°C 39°F / 4°C 35% 30.09 in
(1019 mb)
SW 11.5 mph
(SW 19 kph)
- 10SM
10:35
Clear
68°F / 20°C 39°F / 4°C 35% 30.09 in
(1019 mb)
SSE 10.4 mph
(SSE 17 kph)
- 10SM
10:15
Clear
66°F / 19°C 39°F / 4°C 37% 30.09 in
(1019 mb)
S 12.7 mph
(S 20 kph)
- 10SM
09:55
Clear
64°F / 18°C 37°F / 3°C 37% 30.12 in
(1020 mb)
SSE 13.8 mph
(SSE 22 kph)
- 10SM
09:35
Clear
64°F / 18°C 39°F / 4°C 40% 30.12 in
(1020 mb)
SSE 12.7 mph
(SSE 20 kph)
- 10SM
09:15
Clear
63°F / 17°C 39°F / 4°C 42% 30.12 in
(1020 mb)
S 12.7 mph
(S 20 kph)
- 10SM
08:55
Clear
61°F / 16°C 37°F / 3°C 42% 30.12 in
(1020 mb)
S 10.4 mph
(S 17 kph)
- 10SM
08:35
Clear
59°F / 15°C 37°F / 3°C 45% 30.12 in
(1020 mb)
SW 10.4 mph
(SW 17 kph)
- 10SM
08:15
Clear
59°F / 15°C 37°F / 3°C 45% 30.12 in
(1020 mb)
SW 13.8 mph
(SW 22 kph)
- 10SM
07:55
Clear
57°F / 14°C 37°F / 3°C 48% 30.12 in
(1020 mb)
SW 11.5 mph
(SW 19 kph)
- 10SM
07:35
Clear
54°F / 12°C 37°F / 3°C 54% 30.12 in
(1020 mb)
SSE 8.1 mph
(SSE 13 kph)
- 10SM
07:15
Clear
52°F / 11°C 36°F / 2°C 54% 30.12 in
(1020 mb)
S 6.9 mph
(S 11 kph)
- 10SM
06:55
Clear
50°F / 10°C 34°F / 1°C 54% 30.15 in
(1021 mb)
S 6.9 mph
(S 11 kph)
- 10SM
06:35
Clear
48°F / 9°C 34°F / 1°C 58% 30.15 in
(1021 mb)
S 8.1 mph
(S 13 kph)
- 10SM
06:15
Clear
48°F / 9°C 32°F / 0°C 54% 30.15 in
(1021 mb)
S 4.6 mph
(S 7 kph)
- 10SM
05:55
Clear
46°F / 8°C 32°F / 0°C 57% 30.12 in
(1020 mb)
S 5.8 mph
(S 9 kph)
- 10SM
05:35
Clear
45°F / 7°C 32°F / 0°C 61% 30.12 in
(1020 mb)
SSE 5.8 mph
(SSE 9 kph)
- 10SM
05:15
Clear
45°F / 7°C 32°F / 0°C 61% 30.12 in
(1020 mb)
SSE 3.5 mph
(SSE 6 kph)
- 10SM
04:55
Clear
45°F / 7°C 32°F / 0°C 61% 30.12 in
(1020 mb)
SSE 3.5 mph
(SSE 6 kph)
- 10SM
04:35
Clear
45°F / 7°C 32°F / 0°C 61% 30.12 in
(1020 mb)
S 3.5 mph
(S 6 kph)
- 10SM
04:15
Clear
45°F / 7°C 32°F / 0°C 61% 30.12 in
(1020 mb)
S 3.5 mph
(S 6 kph)
- 10SM
03:55
Clear
45°F / 7°C 32°F / 0°C 61% 30.12 in
(1020 mb)
S 3.5 mph
(S 6 kph)
- 10SM
03:35
Clear
43°F / 6°C 32°F / 0°C 66% 30.09 in
(1019 mb)
Calm - 10SM
03:15
Clear
45°F / 7°C 32°F / 0°C 61% 30.12 in
(1020 mb)
Calm - 10SM
02:55
Clear
43°F / 6°C 34°F / 1°C 71% 30.09 in
(1019 mb)
Calm - 10SM
02:35
Clear
43°F / 6°C 34°F / 1°C 71% 30.09 in
(1019 mb)
Calm - 10SM
02:15
Clear
43°F / 6°C 34°F / 1°C 71% 30.09 in
(1019 mb)
Calm - 10SM
01:55
Clear
43°F / 6°C 34°F / 1°C 71% 30.12 in
(1020 mb)
Calm - 10SM
01:35
Clear
41°F / 5°C 36°F / 2°C 81% 30.12 in
(1020 mb)
Calm - 10SM
01:15
Clear
39°F / 4°C 36°F / 2°C 87% 30.12 in
(1020 mb)
Calm - 10SM
00:55
Clear
41°F / 5°C 34°F / 1°C 76% 30.12 in
(1020 mb)
Calm - 10SM
00:35
Clear
41°F / 5°C 36°F / 2°C 81% 30.12 in
(1020 mb)
Calm - 10SM
00:15
Clear
41°F / 5°C 36°F / 2°C 81% 30.12 in
(1020 mb)
Calm - 10SM
Time Weather Temperature Dewpoint Humidity Pressure Winds Precip Visibility


Weather for websites

WeatherForYou.com, LLC is not responsible for any damages or problems caused by this service. Current weather conditions are obtained from the closest station including government and personal stations which may have varying degrees of accuracy. Weather forecasts are derived from the NOAA NDFD. Like all things, this site belongs to Jesus Christ... He just trusts me to maintain it. If you have any questions or comments email webmaster@weatherforyou.com

Copyright © 2014, WeatherForYou.com LLC. All rights reserved.